#timestamp,LO_Frequency,Hit,StdDev 
1570287615.4,286047008.6,P
1570287635.3,286047011.6,N
1570287655.1,286047015.1,P
1570287675.8,286047011.3,N
1570287695.7,286047012.8,N
1570287715.5,286047014.5,Y
1570287735.4,286047007.2,P
1570287755.2,286047003.4,N
1570287775.0,286047010.5,P
1570287775.9,286047010.5,Y
1570287795.8,286047002.4,P
1570287815.6,286047001.5,N
1570287835.4,286047000.2,N
1570287855.3,286046998.9,N
1570287875.1,286046998.8,N
1570287895.9,286047000.8,N
1570287915.7,286046996.8,N
1570287935.5,286046995.4,N
1570287955.4,286046999.6,N
1570287975.2,286047000.4,N
1570287995.0,286047000.5,N
1570287995.9,286047000.5,N
1570288015.8,286046997.1,N
1570288035.6,286046997.9,N
1570288055.5,286046995.0,N
1570288075.3,286046995.0,N
1570288095.1,286046997.1,N
1570288115.9,286046998.1,N
1570288135.7,286046998.9,N
1570288155.5,286046999.1,N
1570288175.4,286046993.6,N
1570288195.2,286046992.4,N
1570288215.1,286046992.6,N
1570288216.0,286046992.6,N
1570288235.8,286046993.8,N
1570288255.6,286046997.2,N
1570288275.5,286047000.6,N
1570288295.3,286046998.2,N
1570288315.1,286046994.8,N
1570288335.9,286046991.5,N
1570288355.7,286046991.2,N
1570288375.6,286046989.9,Y
1570288395.4,286046992.9,P
1570288415.2,286046990.9,P
1570288435.1,286046990.9,P
1570288436.0,286046990.9,Y
1570288455.8,286046999.5,P
1570288475.7,286046998.2,N
1570288495.5,286047001.1,N
1570288515.3,286047006.1,N
1570288535.2,286047009.0,N
1570288555.0,286047009.1,N
1570288555.9,286047009.1,N
1570288575.7,286047009.7,N
1570288595.6,286047009.9,N
1570288615.4,286047007.3,N
1570288635.3,286047005.9,N
1570288655.1,286047003.6,N
1570288656.0,286047003.6,N
1570288675.8,286047002.5,N
1570288695.7,286047007.1,N
1570288715.5,286047008.4,N
1570288735.3,286047011.1,N
1570288755.2,286047011.8,N
1570288775.0,286047011.9,N
1570288775.9,286047011.9,N
1570288795.8,286047011.8,N
1570288815.6,286047009.4,N
1570288835.4,286047012.0,N
1570288855.3,286047010.8,N
1570288875.1,286047007.9,N
1570288895.9,286047009.0,N
1570288915.7,286047006.5,N
1570288935.5,286047006.6,N
1570288955.4,286047007.9,N
1570288975.2,286047006.1,N
1570288995.0,286047006.5,N
1570288995.9,286047006.5,N
1570289015.8,286047012.2,Y
1570289035.6,286047003.6,P
1570289055.5,286047000.4,N
1570289075.3,286046998.1,N
1570289095.1,286047000.6,N
1570289115.9,286046999.3,N
1570289135.7,286046996.6,N
1570289155.6,286046997.3,N
1570289175.4,286046997.3,N
1570289195.2,286046996.9,N
1570289215.1,286046997.2,N
1570289216.0,286046997.2,N
1570289235.8,286046999.5,N
1570289255.6,286046995.4,N
1570289275.5,286046994.9,N
1570289295.3,286046997.8,N
1570289315.2,286046993.6,N
1570289335.9,286046990.7,N
1570289355.7,286046992.8,N
1570289375.6,286046992.8,N
1570289395.4,286046993.6,N
1570289415.2,286046991.7,N
1570289435.1,286046994.3,N
1570289436.0,286046994.3,N
1570289455.8,286046993.7,N
1570289475.7,286046995.0,N
1570289495.5,286046995.6,N
1570289515.3,286046993.4,N
1570289535.2,286046992.1,N
1570289555.0,286046996.4,N
1570289555.9,286046996.4,N
1570289575.7,286046998.4,N
1570289595.6,286046999.8,N
1570289615.4,286046999.2,N
1570289635.3,286046997.1,N
1570289655.1,286046998.7,N
1570289656.0,286046998.7,N
1570289675.8,286046994.6,N
1570289695.7,286046990.5,Y
1570289715.5,286046997.9,P
1570289735.4,286046997.6,N
1570289755.2,286046997.8,N
1570289775.0,286046996.6,Y
1570289775.9,286046996.6,P
1570289795.8,286047002.6,P
1570289815.6,286047002.2,N
1570289835.4,286047001.7,N
1570289855.3,286047002.9,N
1570289875.1,286047007.1,N
1570289895.9,286047005.6,N
1570289915.7,286047002.9,N
1570289935.5,286047004.4,N
1570289955.4,286047003.9,N
1570289975.2,286047002.4,N
1570289995.0,286047002.7,N
1570289995.9,286047002.7,N
1570290015.8,286046998.6,N
1570290035.6,286046997.8,N
1570290055.5,286046994.1,N
1570290075.3,286046996.0,N
1570290095.1,286046993.4,N
1570290115.9,286046993.5,N
1570290135.7,286046994.1,N
1570290155.5,286046994.2,N
1570290175.4,286046993.6,N
1570290195.2,286046998.0,N
1570290215.1,286046998.3,N
1570290216.0,286046998.3,N
1570290235.8,286047002.0,N
1570290255.6,286047003.9,N
1570290275.5,286047009.7,N
1570290295.3,286047011.8,N
1570290315.1,286047010.8,N
1570290335.9,286047007.4,N
1570290355.7,286047005.4,N
1570290375.6,286047005.1,N
1570290395.4,286047003.0,N
1570290415.2,286047002.6,N
1570290435.1,286047004.2,N
1570290436.0,286047004.2,N
1570290455.8,286047001.5,N
1570290475.6,286047002.6,N
1570290495.5,286046998.2,N
1570290515.3,286046998.3,N
1570290535.2,286046999.9,N
1570290555.9,286047000.5,N
1570290575.7,286046999.2,N
1570290595.6,286046992.3,N
1570290615.4,286046991.1,N
1570290635.2,286046991.6,N
1570290655.1,286046991.1,N
1570290656.0,286046991.1,N
1570290675.8,286046991.9,N
1570290695.7,286046994.3,N
1570290715.5,286046991.8,N
1570290735.3,286046994.1,N
1570290755.2,286046990.4,N
1570290775.0,286046993.1,N
1570290775.9,286046993.1,N
1570290795.8,286046993.0,N
1570290815.6,286046990.5,N
1570290835.4,286046990.6,N
1570290855.3,286046991.0,N
1570290875.1,286046991.4,N
1570290895.8,286046990.4,N
1570290915.7,286046991.0,N
1570290935.5,286046989.1,N
1570290955.4,286046991.9,N
1570290975.2,286046995.4,N
1570290995.0,286047001.1,N
1570290995.9,286047001.1,N
1570291015.8,286046998.3,N
1570291035.6,286047000.9,N
1570291055.5,286046997.7,N
1570291075.3,286046995.6,N
1570291095.1,286046992.0,N
1570291115.9,286046989.8,N
1570291135.7,286046991.5,N
1570291155.5,286046991.2,N
1570291175.4,286046994.4,N
1570291195.2,286046996.1,N
